Location: Le Gr�zie
(43.6000°N, 13.5000°E)
Time: 19:46:55
(UTC+00:00)

Aureole 1 Rocket - Pass Details

Date: 09 April 2020
Orbit: 379 x 1379 km, 73.9° (Epoch: 31 May)

Event Time Altitude Azimuth Distance (km) Brightness Sun altitude
Rises 18:34:13 0° 197° (SSW) 4,235 7.3 -9.8°
Reaches altitude 10° 18:37:14 10° 197° (SSW) 3,166 6.6 -10.3°
Maximum altitude 18:44:46 87° 110° (ESE) 1,036 4.1 -11.5°
Drops below altitude 10° 18:50:38 10° 21° (NNE) 2,491 6.2 -12.5°
Sets 18:52:47 0° 22° (NNE) 3,290 6.8 -12.9°
